Location: Arboyeti
(42.1122°N, 44.6017°E)
Time: 03:36:49
(UTC+00:00)

X-37B - Pass Details

Date: 06 October 2021
Orbit: 385 x 389 km, 45.0° (Epoch: 17 October)

Event Time Altitude Azimuth Distance (km) Brightness Sun altitude
Exits shadow 01:11:47 11° 158° (SSE) 1,363 3.4 -21.5°
Drops below altitude 10° 01:11:54 10° 157° (SSE) 1,405 3.5 -21.5°
Sets 01:14:11 0° 143° (SE) 2,256 4.8 -21.1°
